[[{"header":{"parameterUnit":"m.s-1","parameterCategory":2,"la1":30.2992,"la2":30.254,"lo1":-89.0895,"lo2":-89.0443,"dy":0.0025,"dx":0.0025,"nx":19,"ny":19,"refTime":"2026-04-03T21:00:00:Z","depth":"0","parameterNumber":2,"parameterNumberName":"U-component_of_CURRENTS"},"data":[0,0,0,-0.2618,-0.2621,-0.2822,-0.2823,-0.2998,-0.2999,0,0,0,0,0,0,0,0,0,0,0,-0.2522,-0.2522,-0.2618,-0.2622,-0.2822,-0.2823,-0.2998,-0.2999,0,0,0,0,0,0,0,0,0,0,0,-0.2522,-0.2522,-0.2523,-0.2622,-0.2822,-0.2824,-0.2997,-0.2871,0,0,0,0,0,0,0,0,0,0,-0.2688,-0.2608,-0.2522,-0.2523,-0.2623,-0.2822,-0.2824,-0.2866,-0.2879,-0.2878,0,-0.288,0,-0.2945,-0.3007,-0.3007,0,0,0,-0.2641,-0.2598,-0.2648,-0.2523,-0.2625,-0.2821,-0.2737,-0.2874,-0.2888,-0.2894,-0.2883,-0.2891,-0.2948,-0.3008,-0.3008,-0.2921,-0.2919,0,0,-0.263,-0.2571,-0.2638,-0.2656,-0.2639,-0.2731,-0.2743,-0.2884,-0.2881,-0.2884,-0.2897,-0.2951,-0.3009,-0.301,-0.2923,-0.292,0,0,0,-0.2585,-0.2562,-0.2613,-0.2647,-0.2691,-0.2736,-0.2751,-0.2876,-0.289,-0.2899,-0.2953,-0.3009,-0.3011,-0.2925,-0.2922,-0.2902,0,0,0,-0.2579,-0.2536,-0.2606,-0.2576,-0.2688,-0.2799,-0.2738,-0.288,-0.2899,-0.2952,-0.3009,-0.3012,-0.2927,-0.2923,-0.2907,-0.2923,0,0,0,-0.252,-0.2531,-0.2541,-0.2571,-0.2654,-0.2799,-0.2824,-0.2887,-0.2931,-0.3008,-0.3012,-0.2928,-0.2924,-0.2912,-0.2929,-0.2943,0,0,0,-0.2473,-0.2481,-0.2539,-0.2584,-0.2651,-0.2751,-0.2824,-0.2916,-0.2977,-0.301,-0.2927,-0.2922,-0.2913,-0.2932,-0.2945,-0.2796,-0.2773,0,0,-0.2463,-0.2478,-0.2515,-0.2573,-0.2668,-0.2727,-0.2761,-0.2873,-0.2894,-0.2884,-0.2883,-0.2906,-0.2929,-0.2944,-0.254,-0.2525,0,0,0,-0.2502,-0.2516,-0.2558,-0.263,-0.2711,-0.2738,-0.2823,-0.2821,-0.2821,-0.2906,-0.282,-0.2834,-0.2846,-0.2757,-0.2743,-0.2676,-0.2902,-0.2902,-0.2903,-0.2431,-0.251,-0.2566,-0.2644,-0.2686,-0.2736,-0.275,-0.2732,-0.2764,-0.2712,-0.2755,-0.2664,-0.256,-0.255,-0.248,-0.2667,-0.2667,-0.2666,-0.2666,-0.2432,-0.246,-0.2549,-0.2621,-0.265,-0.2664,-0.2657,-0.2659,-0.264,-0.2637,-0.265,-0.2658,-0.2534,-0.2464,-0.2664,-0.2664,-0.2664,-0.2665,-0.2665,-0.2371,-0.2384,-0.2446,-0.2532,-0.2575,-0.2609,-0.2582,-0.2586,-0.2621,-0.263,-0.2546,-0.2544,-0.2548,-0.2631,-0.2631,-0.2631,-0.2631,-0.2631,-0.2631,-0.2257,-0.2315,-0.2338,-0.2442,-0.2488,-0.2503,-0.2538,-0.2544,-0.2522,-0.2507,-0.2506,-0.2454,-0.2655,-0.2731,-0.2632,-0.2632,-0.2632,-0.2632,-0.2632,-0.2148,-0.2159,-0.2196,-0.2237,-0.2338,-0.2272,-0.237,-0.2354,-0.2402,-0.2377,-0.227,-0.2447,-0.2457,-0.2464,-0.2532,-0.2389,-0.2389,-0.2389,-0.2389,-0.2039,-0.2063,-0.2059,-0.2091,-0.2115,-0.2144,-0.2042,-0.2085,-0.2115,-0.2065,-0.2135,-0.2073,-0.2086,-0.2074,-0.209,-0.2151,-0.1914,-0.1913,-0.1913,-0.1956,-0.1979,-0.1932,-0.1988,-0.2017,-0.1957,-0.1813,-0.18,-0.1843,-0.1895,-0.2073,-0.2093,-0.201,-0.2036,-0.2025,-0.2053,-0.2156,0,0]},{"header":{"parameterUnit":"m.s-1","parameterCategory":2,"la1":30.2992,"la2":30.254,"lo1":-89.0895,"lo2":-89.0443,"dy":0.0025,"dx":0.0025,"nx":19,"ny":19,"refTime":"2026-04-03T21:00:00:Z","depth":"0","parameterNumber":3,"parameterNumberName":"V-component_of_CURRENTS"},"data":[0,0,0,-0.0241,-0.0238,-0.0043,-0.0041,0.0253,0.0256,0,0,0,0,0,0,0,0,0,0,0,-0.0316,-0.0316,-0.0241,-0.0237,-0.0043,-0.0041,0.0253,0.0256,0,0,0,0,0,0,0,0,0,0,0,-0.0317,-0.0316,-0.0316,-0.0237,-0.0043,-0.0041,0.0252,0.0102,0,0,0,0,0,0,0,0,0,0,-0.0089,-0.0179,-0.0316,-0.0316,-0.0236,-0.0043,-0.0041,0.0095,0.0112,0.0168,0,0.017,0,0.021,0.0274,0.0274,0,0,0,-0.0204,-0.0193,-0.0145,-0.0316,-0.0235,-0.0044,-0.0121,0.0104,0.0123,0.019,0.0174,0.0185,0.0215,0.0275,0.0277,0.04,0.0399,0,0,-0.0214,-0.0264,-0.0158,-0.0134,-0.0219,-0.0128,-0.0116,0.0115,0.0123,0.0175,0.0193,0.022,0.0277,0.0279,0.04,0.04,0,0,0,-0.0268,-0.0273,-0.0229,-0.0146,-0.012,-0.0123,-0.0109,0.0114,0.0126,0.0196,0.0223,0.0279,0.0282,0.0401,0.04,0.03,0,0,0,-0.0273,-0.0306,-0.0235,-0.026,-0.0126,-0.0007,-0.0116,0.011,0.0137,0.0222,0.0279,0.0284,0.0402,0.0401,0.0304,0.0257,0,0,0,-0.0319,-0.0309,-0.03,-0.0264,-0.0194,-0.001,0.0017,0.0117,0.0153,0.0275,0.0285,0.0402,0.0401,0.0308,0.0263,0.0306,0,0,0,-0.0357,-0.0399,-0.0301,-0.0333,-0.0196,-0.0109,0.0016,0.01,0.0188,0.028,0.0402,0.04,0.0309,0.0268,0.0309,0.0388,0.0382,0,0,-0.0442,-0.0411,-0.043,-0.0339,-0.0304,-0.0132,-0.0064,0.0097,0.0188,0.0337,0.0341,0.0303,0.0264,0.0307,0.0301,0.0298,0,0,0,-0.0478,-0.0493,-0.0467,-0.0417,-0.0308,-0.0173,-0.0005,0.007,0.019,0.0229,0.03,0.0279,0.031,0.0362,0.0359,0.0559,0.0393,0.0393,0.0394,-0.063,-0.057,-0.0574,-0.0474,-0.039,-0.0193,-0.0097,0.0041,0.0139,0.0152,0.0195,0.0153,0.0204,0.0204,0.0406,0.0196,0.0196,0.0196,0.0195,-0.0763,-0.0765,-0.0643,-0.0637,-0.0458,-0.0362,-0.0138,-0.0063,0.0064,0.0109,0.0146,0.0249,0.0195,0.0412,0.0189,0.019,0.0191,0.0191,0.0192,-0.0873,-0.0859,-0.0844,-0.0779,-0.0645,-0.0446,-0.0327,-0.0183,-0.0033,-0.0011,0.0134,0.0138,0.0339,0.0033,0.0033,0.0033,0.0033,0.0033,0.0033,-0.0992,-0.0961,-0.0983,-0.0903,-0.0823,-0.0676,-0.0437,-0.0319,-0.0093,0.0035,0.0038,0.0347,0.0106,0.0124,0.0032,0.0032,0.0032,0.0032,0.0033,-0.113,-0.1115,-0.1148,-0.1115,-0.0934,-0.0808,-0.0607,-0.0306,-0.0155,-0.0014,0.0375,0.0102,0.0162,0.0167,0.0187,0.0118,0.0118,0.0118,0.0118,-0.1217,-0.1216,-0.1225,-0.1163,-0.104,-0.0842,-0.0657,-0.0331,0.0176,0.0445,0.0521,0.0581,0.0569,0.0658,0.0651,0.0684,0.0742,0.0743,0.0744,-0.129,-0.1286,-0.1287,-0.1212,-0.1047,-0.0883,-0.0689,-0.0319,0.0431,0.0787,0.0781,0.0754,0.086,0.0824,0.0976,0.095,0.1008,0,0]}],[{"header":{"parameterUnit":"m.s-1","parameterCategory":2,"la1":30.2992,"la2":30.254,"lo1":-89.0895,"lo2":-89.0443,"dy":0.0025,"dx":0.0025,"nx":19,"ny":19,"refTime":"2026-04-03T21:00:00:Z","depth":"2","parameterNumber":2,"parameterNumberName":"U-component_of_CURRENTS"},"data":[0,0,0,-0.2449,-0.2452,-0.2454,-0.2453,-0.257,-0.2572,0,0,0,0,0,0,0,0,0,0,0,-0.2404,-0.2405,-0.2448,-0.2452,-0.2454,-0.2453,-0.2569,-0.2572,0,0,0,0,0,0,0,0,0,0,0,-0.2404,-0.2405,-0.2407,-0.2453,-0.2454,-0.2453,-0.2569,-0.2516,0,0,0,0,0,0,0,0,0,0,-0.249,-0.2441,-0.2405,-0.2407,-0.2454,-0.2455,-0.2453,-0.2511,-0.252,-0.2631,0,-0.2665,0,-0.2691,-0.2591,-0.2592,0,0,0,-0.2357,-0.2433,-0.249,-0.2407,-0.2455,-0.2455,-0.2426,-0.2514,-0.2524,-0.2643,-0.2667,-0.2672,-0.2693,-0.2593,-0.2595,-0.258,-0.2578,0,0,-0.2357,-0.2346,-0.2483,-0.2497,-0.2507,-0.2427,-0.2428,-0.2517,-0.2522,-0.2668,-0.2675,-0.2695,-0.2595,-0.2597,-0.2582,-0.2579,0,0,0,-0.2421,-0.2346,-0.2393,-0.2492,-0.2523,-0.243,-0.243,-0.2514,-0.2547,-0.2677,-0.2696,-0.2597,-0.26,-0.2585,-0.2581,-0.2596,0,0,0,-0.2416,-0.2392,-0.2394,-0.2379,-0.2521,-0.2502,-0.2424,-0.2537,-0.255,-0.2696,-0.2597,-0.2603,-0.2587,-0.2583,-0.2601,-0.2615,0,0,0,-0.2395,-0.2389,-0.2415,-0.238,-0.2435,-0.2501,-0.253,-0.2537,-0.257,-0.2593,-0.2604,-0.2589,-0.2584,-0.2606,-0.2621,-0.2622,0,0,0,-0.2343,-0.2382,-0.2414,-0.2462,-0.2436,-0.2442,-0.2528,-0.2542,-0.2555,-0.2598,-0.2587,-0.2581,-0.2607,-0.2624,-0.2625,-0.2487,-0.2463,0,0,-0.2362,-0.2383,-0.2413,-0.2446,-0.2439,-0.2432,-0.2395,-0.2478,-0.2494,-0.2558,-0.2556,-0.26,-0.2621,-0.2623,-0.217,-0.2157,0,0,0,-0.2399,-0.2432,-0.2426,-0.2451,-0.2446,-0.2377,-0.2431,-0.2446,-0.2436,-0.25,-0.2483,-0.2493,-0.2497,-0.2414,-0.24,-0.2555,-0.2556,-0.2557,-0.2557,-0.2373,-0.2403,-0.2381,-0.239,-0.2395,-0.2364,-0.2332,-0.2339,-0.2401,-0.2351,-0.242,-0.231,-0.2212,-0.2203,-0.2315,-0.2314,-0.2314,-0.2314,-0.2314,-0.2346,-0.2331,-0.2342,-0.2344,-0.2294,-0.2293,-0.2284,-0.23,-0.2298,-0.2301,-0.2305,-0.2323,-0.219,-0.2313,-0.2313,-0.2314,-0.2314,-0.2314,-0.2314,-0.2295,-0.2277,-0.2303,-0.2282,-0.2257,-0.2238,-0.2229,-0.225,-0.2287,-0.2294,-0.22,-0.2199,-0.2408,-0.2294,-0.2294,-0.2294,-0.2294,-0.2294,-0.2294,-0.2207,-0.2226,-0.2223,-0.2218,-0.2177,-0.2159,-0.2183,-0.2193,-0.2179,-0.2174,-0.2173,-0.2303,-0.2304,-0.2401,-0.2294,-0.2294,-0.2294,-0.2294,-0.2294,-0.2155,-0.2219,-0.2163,-0.2127,-0.2019,-0.1914,-0.2002,-0.199,-0.2038,-0.2011,-0.2106,-0.211,-0.2104,-0.211,-0.2197,-0.2045,-0.2045,-0.2045,-0.2045,-0.2117,-0.215,-0.205,-0.1937,-0.1815,-0.1765,-0.1652,-0.1668,-0.1778,-0.1786,-0.1797,-0.175,-0.1765,-0.1739,-0.1754,-0.1835,-0.1588,-0.1587,-0.1587,-0.2054,-0.2029,-0.1892,-0.1815,-0.1661,-0.1575,-0.1408,-0.1316,-0.1393,-0.1572,-0.175,-0.2008,-0.1969,-0.1981,-0.1967,-0.1981,-0.2121,0,0]},{"header":{"parameterUnit":"m.s-1","parameterCategory":2,"la1":30.2992,"la2":30.254,"lo1":-89.0895,"lo2":-89.0443,"dy":0.0025,"dx":0.0025,"nx":19,"ny":19,"refTime":"2026-04-03T21:00:00:Z","depth":"2","parameterNumber":3,"parameterNumberName":"V-component_of_CURRENTS"},"data":[0,0,0,-0.0091,-0.0091,-0.0067,-0.0066,0.0156,0.0158,0,0,0,0,0,0,0,0,0,0,0,-0.0095,-0.0096,-0.0091,-0.0091,-0.0067,-0.0066,0.0156,0.0158,0,0,0,0,0,0,0,0,0,0,0,-0.0095,-0.0095,-0.0096,-0.0091,-0.0067,-0.0066,0.0155,0.0096,0,0,0,0,0,0,0,0,0,0,0.0051,0.0006,-0.0095,-0.0096,-0.0091,-0.0067,-0.0066,0.0091,0.01,0.0191,0,0.0173,0,0.0162,0.0175,0.0176,0,0,0,-0.0064,-0.0002,0.0003,-0.0096,-0.0091,-0.0067,-0.007,0.0094,0.0104,0.0203,0.0176,0.0183,0.0166,0.0177,0.0178,0.0269,0.0268,0,0,-0.0065,-0.0077,-0.0005,0.0008,-0.0108,-0.0071,-0.007,0.0099,0.0105,0.0177,0.0187,0.017,0.0178,0.018,0.0269,0.0268,0,0,0,-0.0088,-0.0078,-0.008,0.0001,-0.0015,-0.0071,-0.0069,0.0098,0.0095,0.0189,0.0172,0.018,0.0183,0.027,0.0269,0.0177,0,0,0,-0.0087,-0.0093,-0.0081,-0.0085,-0.0021,0.0014,-0.0074,0.0084,0.0101,0.0171,0.018,0.0185,0.0271,0.027,0.0182,0.0134,0,0,0,-0.0092,-0.0093,-0.0099,-0.0086,-0.009,0.001,0.0017,0.0086,0.0092,0.0176,0.0186,0.0272,0.027,0.0186,0.0141,0.0147,0,0,0,-0.009,-0.0136,-0.0099,-0.0157,-0.009,-0.0101,0.0015,0.0038,0.0095,0.0181,0.0271,0.0269,0.0187,0.0145,0.015,0.0188,0.0175,0,0,-0.0153,-0.0144,-0.0182,-0.015,-0.0209,-0.0101,-0.0108,0.002,0.0099,0.0238,0.0239,0.018,0.0141,0.0148,0.0067,0.0058,0,0,0,-0.0206,-0.0245,-0.0255,-0.0281,-0.0251,-0.0202,-0.0091,-0.0027,0.0066,0.0117,0.0163,0.0141,0.0149,0.0178,0.017,0.0259,0.0259,0.026,0.026,-0.0301,-0.0312,-0.0377,-0.0379,-0.036,-0.0259,-0.0205,-0.0094,0.0007,0.0013,0.0054,-0.0025,0.0002,-0.0003,0.0045,0.0044,0.0044,0.0044,0.0043,-0.0433,-0.0485,-0.0467,-0.0538,-0.0459,-0.043,-0.0275,-0.0202,-0.0105,-0.0045,-0.0032,0.0062,-0.0017,0.0036,0.0037,0.0038,0.0039,0.004,0.004,-0.0509,-0.0536,-0.0579,-0.065,-0.0625,-0.0519,-0.0455,-0.0329,-0.0205,-0.0194,-0.0099,-0.0097,-0.0048,-0.0167,-0.0167,-0.0167,-0.0168,-0.0168,-0.0168,-0.057,-0.0615,-0.0718,-0.0762,-0.0767,-0.0711,-0.0557,-0.0475,-0.0312,-0.0204,-0.0202,-0.0095,-0.0088,-0.006,-0.0171,-0.0171,-0.017,-0.017,-0.017,-0.0703,-0.0731,-0.0868,-0.0916,-0.0914,-0.0856,-0.072,-0.0523,-0.0417,-0.0331,-0.0183,-0.0181,-0.0134,-0.0127,-0.0099,-0.0214,-0.0214,-0.0214,-0.0214,-0.079,-0.0816,-0.0987,-0.1038,-0.1026,-0.0907,-0.0802,-0.0583,-0.0349,-0.0217,-0.0217,-0.0178,-0.0176,-0.0128,-0.012,-0.0091,-0.0204,-0.0204,-0.0204,-0.0897,-0.093,-0.1035,-0.1079,-0.105,-0.095,-0.0837,-0.0575,-0.0252,-0.0206,-0.0238,-0.0209,-0.0149,-0.0146,-0.0066,-0.0057,-0.0006,0,0]}],[{"header":{"parameterUnit":"m.s-1","parameterCategory":2,"la1":30.2992,"la2":30.254,"lo1":-89.0895,"lo2":-89.0443,"dy":0.0025,"dx":0.0025,"nx":19,"ny":19,"refTime":"2026-04-03T21:00:00:Z","depth":"4","parameterNumber":2,"parameterNumberName":"U-component_of_CURRENTS"},"data":[0,0,0,-0.1006,-0.1009,-0.1167,-0.1168,-0.133,-0.1331,0,0,0,0,0,0,0,0,0,0,0,-0.0963,-0.0963,-0.1006,-0.1009,-0.1167,-0.1168,-0.1329,-0.1331,0,0,0,0,0,0,0,0,0,0,0,-0.0962,-0.0963,-0.0964,-0.101,-0.1167,-0.1168,-0.1329,-0.1225,0,0,0,0,0,0,0,0,0,0,-0.1079,-0.1026,-0.0963,-0.0964,-0.101,-0.1167,-0.1168,-0.1221,-0.1232,-0.1239,0,-0.1262,0,-0.1285,-0.1339,-0.1339,0,0,0,-0.1031,-0.1018,-0.1064,-0.0965,-0.1012,-0.1167,-0.1102,-0.1227,-0.1239,-0.1253,-0.1265,-0.1271,-0.1288,-0.1339,-0.134,-0.1558,-0.1559,0,0,-0.1022,-0.0989,-0.1056,-0.1072,-0.105,-0.1097,-0.1107,-0.1235,-0.1243,-0.1265,-0.1275,-0.1291,-0.134,-0.1341,-0.1557,-0.1558,0,0,0,-0.0982,-0.0983,-0.1028,-0.1065,-0.1089,-0.1101,-0.1112,-0.1238,-0.1254,-0.1277,-0.1292,-0.1341,-0.1342,-0.1555,-0.1557,-0.1592,0,0,0,-0.0978,-0.0958,-0.1024,-0.1005,-0.1086,-0.1167,-0.1111,-0.1246,-0.1261,-0.1292,-0.1341,-0.1343,-0.1553,-0.1556,-0.1587,-0.1576,0,0,0,-0.0956,-0.0955,-0.0974,-0.1003,-0.1061,-0.1166,-0.1191,-0.1251,-0.1269,-0.1339,-0.1344,-0.1552,-0.1556,-0.1583,-0.157,-0.1564,0,0,0,-0.0916,-0.0939,-0.0974,-0.1015,-0.106,-0.1181,-0.1191,-0.1286,-0.135,-0.1341,-0.1553,-0.1557,-0.1582,-0.1567,-0.1561,-0.1311,0,0,0,-0.092,-0.0939,-0.0968,-0.1002,-0.1105,-0.1161,-0.1301,-0.138,-0.1411,-0.1507,-0.1513,-0.1589,-0.157,-0.1563,-0.1527,0,0,0,0,-0.0954,-0.0973,-0.1015,-0.1081,-0.1176,-0.1299,-0.1383,-0.1445,-0.1569,-0.1461,-0.1653,-0.164,-0.1633,-0.1486,-0.1575,-0.1574,-0.1574,-0.1573,-0.1573,-0.0898,-0.0969,-0.1037,-0.1145,-0.1238,-0.1406,-0.1509,-0.1617,-0.1633,-0.1712,-0.1717,-0.18,-0.1655,-0.1787,-0.1787,-0.1787,-0.1788,-0.1788,-0.1788,-0.0907,-0.0939,-0.106,-0.1154,-0.1304,-0.1433,-0.164,-0.1698,-0.1817,-0.1828,-0.1819,-0.1595,-0.1793,-0.1792,-0.1791,-0.1791,-0.179,-0.179,-0.179,-0.0851,-0.0878,-0.0963,-0.1108,-0.1268,-0.1458,-0.161,-0.1761,-0.1831,-0.1859,-0.1676,-0.1816,-0.1752,-0.1851,-0.1851,-0.1851,-0.1851,-0.1851,-0.1851,-0.075,-0.0839,-0.0897,-0.1062,-0.1152,-0.134,-0.1591,-0.1655,-0.1764,-0.1683,-0.1857,-0.182,-0.1818,-0.1758,-0.1851,-0.1851,-0.1851,-0.1851,-0.1851,-0.0672,-0.0717,-0.0789,-0.0871,-0.1074,-0.1206,-0.1454,-0.1521,-0.1541,-0.1486,-0.1581,-0.1594,-0.1541,-0.1545,-0.1472,-0.1484,-0.1481,-0.1478,0,-0.0594,-0.0628,-0.0713,-0.0802,-0.0926,-0.1136,-0.1169,-0.1271,-0.1341,-0.1299,-0.1527,-0.1634,-0.1643,-0.1584,-0.1583,-0.1498,0,0,0,-0.0551,-0.059,-0.062,-0.0727,-0.0857,-0.1007,-0.1185,-0.1153,-0.1345,-0.1272,-0.1404,-0.1423,-0.1667,-0.185,-0.1799,-0.1797,-0.1696,0,0]},{"header":{"parameterUnit":"m.s-1","parameterCategory":2,"la1":30.2992,"la2":30.254,"lo1":-89.0895,"lo2":-89.0443,"dy":0.0025,"dx":0.0025,"nx":19,"ny":19,"refTime":"2026-04-03T21:00:00:Z","depth":"4","parameterNumber":3,"parameterNumberName":"V-component_of_CURRENTS"},"data":[0,0,0,-0.0127,-0.0127,-0.0111,-0.0111,-0.004,-0.0039,0,0,0,0,0,0,0,0,0,0,0,-0.013,-0.013,-0.0127,-0.0127,-0.0111,-0.011,-0.004,-0.0039,0,0,0,0,0,0,0,0,0,0,0,-0.013,-0.013,-0.013,-0.0127,-0.0111,-0.011,-0.004,-0.0063,0,0,0,0,0,0,0,0,0,0,-0.0084,-0.0098,-0.013,-0.013,-0.0127,-0.0111,-0.011,-0.0064,-0.0061,-0.0036,0,-0.0039,0,-0.0041,-0.0034,-0.0034,0,0,0,-0.0118,-0.01,-0.0097,-0.013,-0.0127,-0.0111,-0.0115,-0.0063,-0.0059,-0.0032,-0.0038,-0.0036,-0.004,-0.0034,-0.0033,0.0033,0.0033,0,0,-0.0119,-0.0122,-0.01,-0.0095,-0.0128,-0.0116,-0.0115,-0.0061,-0.0058,-0.0038,-0.0034,-0.0039,-0.0033,-0.0033,0.0033,0.0033,0,0,0,-0.0127,-0.0123,-0.0122,-0.0097,-0.0101,-0.0116,-0.0115,-0.006,-0.0061,-0.0034,-0.0038,-0.0033,-0.0032,0.0033,0.0033,-0.0049,0,0,0,-0.0127,-0.0129,-0.0122,-0.0124,-0.0102,-0.0088,-0.0115,-0.0064,-0.0059,-0.0039,-0.0033,-0.0031,0.0032,0.0033,-0.0047,-0.0098,0,0,0,-0.0129,-0.0129,-0.0129,-0.0124,-0.0122,-0.0089,-0.0086,-0.0063,-0.0061,-0.0034,-0.0031,0.0032,0.0033,-0.0046,-0.0095,-0.0104,0,0,0,-0.013,-0.015,-0.0129,-0.016,-0.0122,-0.014,-0.0086,-0.0086,-0.007,-0.0033,0.0032,0.0033,-0.0045,-0.0092,-0.0102,-0.0113,0,0,0,-0.0161,-0.0154,-0.0176,-0.0158,-0.0199,-0.0142,-0.0157,-0.0107,-0.0048,0.002,0.0021,-0.0048,-0.0094,-0.0103,-0.0088,0,0,0,0,-0.019,-0.0204,-0.0213,-0.0232,-0.023,-0.022,-0.0167,-0.0124,-0.0061,-0.0037,-0.0017,-0.0043,-0.0046,-0.0045,0.0035,0.0035,0.0035,0.0035,0.0035,-0.0225,-0.0242,-0.0286,-0.0299,-0.0305,-0.0265,-0.0241,-0.0162,-0.0103,-0.0074,-0.0086,-0.0119,-0.0118,-0.0049,-0.0049,-0.005,-0.005,-0.005,-0.005,-0.0284,-0.031,-0.0338,-0.0385,-0.0377,-0.0376,-0.0301,-0.0247,-0.0179,-0.0123,-0.0121,-0.0102,-0.0058,-0.0056,-0.0055,-0.0054,-0.0054,-0.0053,-0.0053,-0.0299,-0.0315,-0.0355,-0.0428,-0.0462,-0.0441,-0.0439,-0.0358,-0.0262,-0.026,-0.0218,-0.0165,-0.0184,-0.0245,-0.0245,-0.0245,-0.0245,-0.0245,-0.0246,-0.0288,-0.0331,-0.0394,-0.0468,-0.0523,-0.0555,-0.051,-0.0474,-0.0381,-0.0315,-0.0277,-0.0184,-0.0178,-0.0193,-0.025,-0.0249,-0.0249,-0.0248,-0.0248,-0.0289,-0.0311,-0.0406,-0.0475,-0.0603,-0.0633,-0.0611,-0.0528,-0.0484,-0.0427,-0.0325,-0.032,-0.0289,-0.028,-0.0298,-0.0388,-0.0389,-0.0389,0,-0.0276,-0.0299,-0.0422,-0.0536,-0.064,-0.0673,-0.0643,-0.0595,-0.0483,-0.0466,-0.0477,-0.0365,-0.0359,-0.0326,-0.0319,-0.0341,0,0,0,-0.0277,-0.0317,-0.0401,-0.0528,-0.0661,-0.0646,-0.0631,-0.0591,-0.0501,-0.047,-0.0399,-0.0397,-0.0357,-0.0262,-0.0202,-0.0195,-0.0216,0,0]}]]